Assumption Island Airport

Jump to: basic info | weather | runways | comments

Related pages: nearby airports | nearby navaids | notams | map

Basic information (top)

Codes: FSAS
Location: lon -9.742220, lat 46.506802, elev 10 ft / 3 m msl
Status: small_airport

Weather (top)

Current conditions for Prince Said Ibrahim International Airport 219nm (406km) WSW (rec'd 2014/11/23 07:00Z):

FMCH 230700Z 27007KT 240V300 9999 FEW020 SCT030 28/22 Q1015 NOSIG

Airport forecast for Prince Said Ibrahim International Airport 219nm (406km) WSW (rec'd 2014/11/22 18:00Z):

TAF FMCH 221700Z 2218/2324 10004KT 9999 FEW020 SCT030 
      BECMG 2304/2306 20010KT PROB30 
      TEMPO 2308/2314 4000 SHRA FEW020CB BKN030 
      BECMG 2318/2320 VRB02KT

Runways (top)

13/31: 3,963 x 75 ft (1,208 x 23 m) — paved — not lighted

Latest comments (top)

No comments yet for Assumption Island Airport

More... (top)

See also NOTAMs and nearby airports and navaids, or visit the Assumption Island Airport page at the main OurAirports website..